This demonstration page uses our WeatherBlox Daily Observations layout. Learn more.

Left ArrowRight Arrow

39.29038, -76.61219

Hourly Observations for November 18, 2018

Temp ( °F °C ) Dew Point ( °F °C ) Humidity (%) Winds ( mph kmh ) Pressure ( in mb ) Visibility ( mi km ) Precip ( " mm )
12:54 am 00:54 undefined 42 5.6 30 -1.1 62 62 undefined N/A 30.32 1027 N/A 0.00 0.00
1:54 am 01:54 undefined 40 4.4 30 -1.1 68 68 undefined N/A 30.33 1027 N/A 0.00 0.00
2:54 am 02:54 undefined 38 3.3 29 -1.7 70 70 undefined N/A 30.34 1027 N/A 0.00 0.00
3:54 am 03:54 undefined 38 3.3 30 -1.1 73 73 undefined N/A 30.33 1027 N/A 0.00 0.00
4:54 am 04:54 undefined 37 2.8 30 -1.1 76 76 undefined N/A 30.35 1028 N/A 0.00 0.00
5:54 am 05:54 undefined 37 2.8 30 -1.1 76 76 undefined N/A 30.35 1028 N/A 0.00 0.00
6:54 am 06:54 undefined 37 2.8 30 -1.1 76 76 undefined N/A 30.37 1028 N/A 0.00 0.00
7:54 am 07:54 undefined 38 3.3 31 -0.6 76 76 undefined N/A 30.39 1029 N/A 0.00 0.00
8:54 am 08:54 undefined 43 6.1 33 0.6 68 68 undefined N/A 30.43 1030 N/A 0.00 0.00
9:54 am 09:54 undefined 44 6.7 34 1.1 68 68 undefined N/A 30.41 1030 N/A 0.00 0.00
10:54 am 10:54 undefined 46 7.8 34 1.1 63 63 undefined N/A 30.37 1029 N/A 0.00 0.00
11:54 am 11:54 undefined 46 7.8 32 0 58 58 undefined N/A 30.33 1027 N/A 0.00 0.00
12:54 pm 12:54 undefined 48 8.9 34 1.1 58 58 undefined N/A 30.33 1027 N/A 0.00 0.00
1:54 pm 13:54 undefined 49 9.4 35 1.7 59 59 undefined N/A 30.28 1026 N/A 0.00 0.00
2:54 pm 14:54 undefined 49 9.4 34 1.1 56 56 undefined N/A 30.25 1024 N/A 0.00 0.00
3:54 pm 15:54 undefined 49 9.4 36 2.2 61 61 undefined N/A 30.24 1024 N/A 0.00 0.00
4:54 pm 16:54 undefined 48 8.9 36 2.2 63 63 undefined N/A 30.23 1024 N/A 0.00 0.00
5:54 pm 17:54 undefined 48 8.9 36 2.2 63 63 undefined N/A 30.24 1024 N/A 0.00 0.00
6:54 pm 18:54 undefined 47 8.3 38 3.3 71 71 undefined N/A 30.23 1024 N/A 0.00 0.00
7:54 pm 19:54 undefined 47 8.3 40 4.4 77 77 undefined N/A 30.22 1023 N/A 0.00 0.00
8:54 pm 20:54 undefined 46 7.8 39 3.9 77 77 undefined N/A 30.21 1023 N/A 0.00 0.00
9:54 pm 21:54 undefined 46 7.8 40 4.4 79 79 undefined N/A 30.20 1023 N/A 0.00 0.00
10:54 pm 22:54 undefined 44 6.7 39 3.9 83 83 undefined N/A 30.19 1023 N/A 0.00 0.00
11:54 pm 23:54 undefined 43 6.1 39 3.9 86 86 undefined N/A 30.18 1022 N/A 0.00 0.00

Powered by AerisWeather